Location: Chervonnoye
(48.6000°N, 34.4000°E)
Time: 16:33:17
(UTC+00:00)

Cosmos 2360 Rocket - Pass Details

Date: 23 November 2020
Orbit: 833 x 845 km, 71.0° (Epoch: 28 January)

Event Time Altitude Azimuth Distance (km) Brightness Sun altitude
Rises 14:13:39 0° 218° (SW) 3,373 6.8 -3.6°
Reaches altitude 10° 14:16:08 10° 222° (SW) 2,442 6.0 -4.0°
Maximum altitude 14:21:39 59° 302° (WNW) 959 2.8 -4.8°
Drops below altitude 10° 14:27:13 10° 23° (NNE) 2,454 4.2 -5.6°
Sets 14:29:42 0° 27° (NNE) 3,392 4.9 -6.0°
Enters shadow 14:29:54 -1° 27° (NNE) 3,465 4.9 -6.0°
